Weather History for St. Petersburg, FL

Change the Weather History Date:

Wednesday, January 15, 2014

  Actual Average Record
Temperature  
Mean Temperature 60 °F -  
Max Temperature 64 °F 68 °F 80 °F (1950)
Min Temperature 55 °F 52 °F 33 °F (1964)
Degree Days  
Heating Degree Days 6    
Growing Degree Days 10 (Base 50)    
Moisture  
Dew Point 49 °F    
Average Humidity 69    
Maximum Humidity 87    
Minimum Humidity 48    
Precipitation  
Precipitation 0.02 in - - ()
Sea Level Pressure  
Sea Level Pressure 30.00 in    
Wind  
Wind Speed 7 mph (NW)    
Max Wind Speed 10 mph    
Max Gust Speed -    
Visibility 10 miles    
Events      
Averages and records for this station are not official NWS values.
T = Trace of Precipitation, MM = Missing Value Source: NWS Daily Summary

Daily Weather History Graph

Daily Weather History Graph

Search for Another Location

Airport:

Trip Planner

Search our weather history database for the weather conditions in past years. The results will help you decide how hot, cold, wet, or windy it might be!

Date:

Astronomy

Jan. 15, 2014 Rise Set
Actual Time 7:22 AM EST 5:57 PM EST
Civil Twilight 6:57 AM EST 6:22 PM EST
Nautical Twilight 6:28 AM EST 6:51 PM EST
Astronomical Twilight 6:00 AM EST 7:19 PM EST
Moon 5:49 PM EST (1/15) 6:42 AM EST (1/15)
Length of Visible Light 11h 25m
Length of Day
10h 34m
Full, 100% of the Moon is Illuminated
Jan 15
Full
Jan 15
Full
Jan 24
Last Quarter
Jan 30
New
Feb 6
First Quarter

Hourly Weather History & Observations

Time (EST) Temp. Dew Point Humidity Pressure Visibility Wind Dir Wind Speed Gust Speed Precip Events Conditions
12:53 AM 57.9 °F 48.0 °F 70% 30.01 in 10.0 mi NW 6.9 mph - N/A   Clear
1:53 AM 57.9 °F 48.0 °F 70% 30.00 in 10.0 mi NW 5.8 mph - N/A   Clear
2:53 AM 57.9 °F 48.9 °F 72% 30.00 in 10.0 mi NW 6.9 mph - N/A   Clear
3:53 AM 57.9 °F 51.1 °F 78% 29.99 in 10.0 mi NW 6.9 mph - N/A   Clear
4:53 AM 57.0 °F 51.1 °F 81% 29.99 in 10.0 mi North 6.9 mph - N/A   Clear
5:53 AM 57.0 °F 51.1 °F 81% 30.00 in 10.0 mi North 9.2 mph - N/A   Clear
6:53 AM 55.9 °F 51.1 °F 84% 30.02 in 10.0 mi NNW 5.8 mph - N/A   Clear
7:53 AM 55.9 °F 50.0 °F 80% 30.04 in 10.0 mi NNW 6.9 mph - N/A   Clear
8:53 AM 57.9 °F 50.0 °F 75% 30.06 in 10.0 mi NNW 8.1 mph - N/A   Clear
9:53 AM 62.1 °F 50.0 °F 65% 30.07 in 10.0 mi NE 3.5 mph - N/A   Clear
10:53 AM 61.0 °F 48.0 °F 62% 30.07 in 10.0 mi North 5.8 mph - N/A   Clear
11:53 AM 62.1 °F 42.1 °F 48% 30.05 in 10.0 mi NW 10.4 mph - N/A   Clear
12:53 PM 63.0 °F 46.0 °F 54% 30.01 in 10.0 mi NNW 10.4 mph - N/A   Clear
1:53 PM 64.0 °F 45.0 °F 50% 30.00 in 10.0 mi WNW 9.2 mph - N/A   Clear
2:53 PM 63.0 °F 46.9 °F 56% 29.96 in 10.0 mi North 6.9 mph - N/A   Clear
3:53 PM 63.0 °F 48.0 °F 58% 29.97 in 10.0 mi Variable 5.8 mph - N/A   Clear
4:53 PM 62.1 °F 46.9 °F 58% 29.97 in 10.0 mi NW 5.8 mph - N/A   Clear
5:53 PM 62.1 °F 48.9 °F 62% 29.97 in 10.0 mi West 3.5 mph - N/A   Clear
6:53 PM 60.1 °F 50.0 °F 69% 29.98 in 10.0 mi WSW 3.5 mph - N/A   Clear
7:53 PM 59.0 °F 51.1 °F 75% 29.96 in 10.0 mi WSW 4.6 mph - N/A   Clear
8:53 PM 59.0 °F 52.0 °F 78% 29.99 in 10.0 mi SW 5.8 mph - N/A   Clear
9:53 PM 59.0 °F 52.0 °F 78% 29.97 in 10.0 mi SW 5.8 mph - N/A   Clear
10:53 PM 57.0 °F 53.1 °F 87% 29.99 in 10.0 mi NW 9.2 mph - 0.02 in   Overcast
11:53 PM 57.9 °F 50.0 °F 75% 29.99 in 10.0 mi NNW 8.1 mph - N/A   Overcast